CAPE
6 6 5 4 6 6 4 4 4 4 4 5 6 5 4 4 4 4 2 3 2 2 5 3 3 4 1 0 1 2 0 0 0 0 0 0 0 18 0 1279 2290 2905 3116 1132 958 1175 1393 976 1448 1466 1638 1463 1520 1140 1748 1601 1173 1112 866 588 474 696 236 702 674 904 809 840 782 1068 1606 1554 1488 1789 1388 385 425 429 297 342 412 591 802 718 771 551 12 0
4 5 6 5 4 5 4 4 4 4 4 4 5 4 5 4 6 3 3 2 3 4 2 3 4 2 0 0 2 0 0 0 0 0 0 90 0 92 1016 2286 1931 3130 3360 956 1221 953 861 1000 881 939 1320 1328 1466 1143 1466 1692 1472 1124 680 587 370 547 561 1169 813 760 973 1020 551 961 1332 1259 1278 830 518 336 282 270 605 552 981 1158 970 906 766 458 42 1
3 2 4 5 6 5 4 5 5 4 5 4 4 4 4 4 4 4 3 2 2 3 3 1 1 2 1 1 1 0 0 0 0 0 0 74 542 789 2249 1998 2134 3099 2744 998 935 724 828 1181 1695 1608 1699 1528 1168 687 960 1720 1600 1416 741 678 684 257 634 1163 1180 994 909 748 288 852 642 1640 1300 1082 874 556 310 654 393 549 1030 1180 832 586 678 438 126 45
1 2 6 4 5 4 5 4 5 4 4 4 4 4 4 3 4 5 4 3 1 2 3 3 2 2 4 1 0 0 0 0 0 0 45 272 586 2019 2272 1794 2108 3145 2735 1043 622 576 1124 1092 984 1232 1069 976 944 1085 964 1532 1449 1505 1136 472 470 600 429 1148 1378 1308 984 1234 697 527 842 867 947 528 511 206 340 716 702 516 465 761 570 504 552 513 223 89
1 3 6 4 5 6 4 4 4 4 4 4 4 4 4 3 5 4 4 3 2 2 3 4 2 2 1 0 0 0 0 0 24 11 388 502 1293 2301 2099 1762 2226 2314 2746 837 521 426 894 784 1291 1312 989 1362 1045 1541 1186 1038 1063 1026 1078 625 1116 721 642 1540 1705 1598 1149 1045 704 624 1226 1414 814 868 1400 563 746 545 768 680 450 603 663 413 392 426 314 151
2 3 5 5 4 3 4 3 2 3 3 4 2 3 2 3 3 3 4 4 2 3 2 2 2 2 0 0 0 0 0 0 0 256 513 683 1955 2104 2157 2016 2624 1879 2696 824 476 367 336 391 734 903 875 824 972 849 506 836 1090 714 647 757 1239 947 1214 1765 2009 2042 1749 1419 1057 1384 1058 698 1129 1220 1345 1134 1031 904 469 462 400 622 656 530 423 370 386 172
2 1 4 6 4 2 2 2 3 2 2 2 3 2 2 2 1 3 4 5 3 4 2 2 2 0 0 0 0 0 0 0 29 144 691 1359 1744 2444 2598 2178 2618 1924 2005 1164 417 424 323 506 682 460 955 978 613 1571 767 20 936 708 610 808 1623 1882 1929 2034 2212 1302 1352 1908 1676 1559 1892 1343 1495 1561 1515 1186 1032 1089 620 308 258 551 619 575 532 426 351 219
3 2 2 5 4 2 1 2 2 2 2 3 4 4 4 4 3 3 4 5 5 2 2 1 0 0 1 0 0 0 0 10 85 221 812 1536 1813 2268 2250 1063 1446 1809 1924 1432 674 338 397 844 868 646 642 418 255 931 292 1069 990 1101 1002 1248 1244 2256 2422 2016 1851 1628 1619 1589 1474 1622 1070 1378 1538 1630 1632 1109 879 1082 614 440 424 586 450 548 769 487 532 143
4 2 1 3 4 2 2 1 2 2 2 4 3 4 3 4 4 5 3 5 4 2 0 0 0 0 0 0 0 0 2 0 2 72 1273 524 394 1926 433 454 1032 1576 1561 1282 991 368 274 388 482 507 356 329 126 691 279 676 490 646 972 1136 1518 1920 2215 2110 1860 1631 1513 1542 1548 1470 1569 1486 1935 1715 1409 1124 1741 1702 1319 572 480 229 337 690 575 414 528 69
4 2 2 3 4 2 2 1 1 2 3 2 4 2 3 2 3 4 2 2 2 1 0 0 0 0 0 0 0 0 70 0 3 31 10 106 254 443 256 276 554 1211 1657 755 502 327 274 382 314 364 570 244 138 42 731 366 153 1488 1394 1412 1827 1747 2247 2221 2047 1642 1215 1024 1401 1730 1519 1324 1624 1782 1386 1639 2317 1471 1952 1045 261 251 332 387 394 430 318 136
3 3 3 4 3 2 2 1 1 1 3 2 0 1 1 1 1 1 2 0 0 0 0 0 0 0 0 0 0 0 41 0 8 9 3 139 352 113 276 313 324 1013 1364 679 361 310 205 243 408 141 140 226 135 269 657 421 972 1236 1072 1306 1408 1605 1683 1614 1404 1327 1515 1213 1112 1043 1410 1673 1647 1278 1912 2130 1565 1620 1747 931 1156 187 253 320 286 151 439 331
3 3 3 3 3 3 1 0 1 2 1 0 1 0 0 0 0 0 0 0 0 0 0 0 0 0 0 0 0 0 0 2 0 0 250 207 217 82 280 416 400 1092 1096 583 260 264 202 307 348 151 272 182 109 237 342 775 1330 952 1380 1356 1272 1225 1548 1542 1502 1184 1060 1110 954 944 1260 1454 1432 1107 1166 1310 1564 1478 1500 1386 1461 86 137 331 226 198 280 186
3 3 3 3 3 2 2 1 2 2 0 0 0 0 0 0 0 0 0 0 0 0 0 0 0 0 0 0 0 0 0 1 0 0 301 694 187 40 274 732 370 597 918 583 407 224 262 244 224 200 252 125 150 874 468 700 941 962 1066 1153 1231 1420 1198 1626 1526 1072 961 1255 1118 1146 757 1022 1375 1126 931 1247 1554 1458 1632 1504 712 200 166 438 229 199 308 218
4 3 2 3 2 1 1 3 2 1 0 0 0 0 0 0 0 0 0 0 0 0 0 0 0 0 0 0 0 0 0 3 31 0 0 445 549 317 285 642 582 487 678 392 412 316 219 261 298 376 127 128 205 10 140 348 457 543 817 909 962 928 849 1846 1517 932 966 1278 960 1299 515 724 1091 1038 966 1418 1374 1449 1446 1136 1084 348 212 221 128 400 448 252
3 1 2 2 1 1 2 2 1 0 0 0 0 0 0 0 0 0 0 0 0 0 0 0 0 0 0 0 0 0 2 0 0 0 0 0 127 307 269 337 447 508 434 318 304 302 212 309 232 204 278 172 34 81 220 265 756 768 425 471 316 261 870 1874 1526 1278 944 1729 1458 964 809 622 1014 799 1242 1014 958 947 712 1111 894 506 439 327 227 260 476 274
2 1 2 2 1 1 1 1 0 1 0 0 0 0 0 0 0 0 0 0 0 0 0 0 0 0 0 0 0 0 0 0 0 0 0 0 0 182 326 352 539 463 358 293 331 263 252 315 258 94 185 127 156 72 291 452 32 10 121 425 17 116 974 1103 1224 1446 1056 1947 1543 965 445 658 1196 907 820 698 950 650 882 1122 832 1135 414 333 466 325 474 402
2 1 4 2 1 1 0 1 0 0 0 0 0 0 0 0 0 0 0 0 0 0 0 0 0 0 0 0 0 0 0 0 0 0 0 0 0 44 204 275 248 219 320 303 391 215 144 200 281 213 44 74 87 8 122 22 324 122 83 95 0 208 474 628 1042 768 675 1036 1796 1480 313 298 746 1006 1044 768 756 597 1068 1113 906 938 587 408 393 147 180 408
2 2 0 2 2 1 1 0 0 0 0 0 0 0 0 0 0 0 0 0 0 0 0 0 0 0 0 0 0 0 0 0 0 0 0 0 0 46 156 188 169 208 280 304 232 172 221 189 128 253 155 14 37 34 23 8 1 0 0 20 3 6 196 410 876 701 652 641 404 511 698 223 408 1413 667 934 1011 545 746 1128 625 573 486 482 403 62 189 12
1 0 0 1 1 2 1 1 0 0 0 0 0 0 0 0 0 0 0 0 0 0 0 0 0 0 0 0 0 0 0 0 0 0 0 0 6 35 104 166 118 119 172 172 262 152 181 141 229 114 60 109 9 45 1 2 2 0 0 0 43 27 50 182 268 503 661 609 819 1001 351 218 380 508 1008 764 980 1480 939 450 637 502 578 514 303 80 62 0
0 1 1 2 2 1 1 0 0 0 0 0 0 0 0 29 76 0 0 0 0 0 0 0 0 0 0 0 0 0 0 0 0 0 0 0 14 28 92 75 32 38 127 154 128 172 192 342 252 200 33 14 5 2 0 1 0 0 0 0 0 6 58 109 125 219 293 603 713 81 592 460 377 250 494 928 992 751 471 707 507 446 760 882 384 230 157 30
0 1 1 0 2 1 0 0 0 0 0 0 0 0 0 0 0 3 0 0 0 0 0 0 0 0 0 0 0 0 0 0 0 0 0 0 0 1 3 0 2 30 45 115 255 214 108 154 188 186 30 37 39 0 1 0 0 1 0 4 2 0 18 28 106 189 514 255 255 525 104 485 434 444 316 710 493 793 678 724 652 572 567 603 622 497 489 356
1 0 1 0 2 0 0 0 0 0 0 0 0 0 0 0 0 0 0 0 0 0 0 0 0 0 0 0 0 0 0 0 0 0 0 0 0 2 6 0 0 8 37 72 198 144 236 341 183 197 130 72 10 29 1 0 0 1 0 0 0 6 3 100 40 231 338 300 41 196 519 470 494 564 156 171 349 306 498 795 447 640 648 509 546 711 697 516
1 1 0 2 0 0 0 0 0 0 0 0 0 0 0 0 0 0 0 0 0 0 0 0 0 0 0 0 0 0 0 0 0 0 0 0 0 0 0 0 0 0 2 145 210 175 96 120 159 83 162 79 130 6 0 0 0 0 0 0 4 5 0 104 14 265 316 168 354 222 53 379 636 477 368 352 273 391 402 443 574 505 586 329 873 831 654 557
0 1 1 0 1 0 0 0 0 0 0 0 0 0 0 0 0 0 0 0 0 0 0 0 0 0 0 0 0 0 0 0 0 0 0 0 0 0 0 0 0 0 0 16 163 200 47 159 192 34 111 90 50 64 24 2 0 0 0 0 0 1 0 0 68 54 320 141 765 275 228 84 318 384 444 595 416 289 380 324 346 384 490 462 374 628 742 788
0 0 1 0 0 1 0 0 0 0 0 0 0 0 0 0 0 0 0 0 0 0 0 0 0 0 0 0 0 0 0 0 0 0 0 0 0 0 0 0 0 0 0 0 9 6 109 96 22 20 22 34 80 54 37 2 0 2 2 2 0 0 3 0 0 23 11 52 79 49 46 115 251 153 294 190 330 633 291 303 264 297 354 436 435 648 596 430
1 1 1 0 1 0 0 0 0 0 0 0 0 0 0 0 0 0 0 0 0 0 0 0 0 0 0 0 0 0 0 0 0 0 0 0 0 0 0 0 0 11 1 0 0 68 124 276 190 82 158 80 50 71 10 0 0 0 4 0 0 0 0 6 0 1 76 97 198 8 70 48 70 179 136 172 183 248 360 448 353 364 401 333 293 382 494 406
0 2 2 1 0 1 0 0 0 0 0 0 0 0 0 0 0 0 0 4 0 0 0 0 0 0 0 0 0 0 0 0 0 0 0 0 0 0 0 0 0 0 64 50 3 50 265 344 335 299 146 107 25 79 10 0 0 0 0 0 0 0 0 0 0 0 48 16 0 46 32 180 54 77 7 89 172 175 334 558 406 349 381 136 480 387 366 294
1 0 2 0 0 1 0 0 0 0 0 0 0 0 0 0 0 0 0 1 2 0 0 0 0 0 0 0 0 0 0 0 0 0 0 0 0 0 0 0 0 0 8 8 85 41 202 183 15 33 216 67 67 35 43 0 0 6 4 0 0 0 0 5 0 2 22 0 91 8 13 94 78 41 106 121 90 249 437 468 452 595 487 292 365 420 392 342
0 0 0 0 0 0 0 0 0 0 0 0 0 0 0 0 0 0 100 85 6 0 0 0 0 0 0 0 0 0 0 0 0 0 0 0 0 0 0 0 0 0 6 0 17 94 67 99 47 118 48 59 68 97 62 0 0 0 0 0 0 0 0 0 2 2 0 0 126 40 58 97 180 139 150 158 168 202 470 346 434 646 207 279 365 418 352 276
0 0 0 1 0 0 0 0 0 0 0 0 0 0 0 0 0 0 0 0 0 0 0 0 0 0 0 0 0 0 0 0 0 0 0 0 0 0 0 0 0 0 0 0 0 11 103 132 78 28 78 132 50 48 87 6 0 0 0 0 0 0 0 0 0 2 0 0 10 19 0 102 4 59 137 153 77 172 217 502 410 435 333 124 229 504 291 112
0 0 0 0 0 0 0 0 0 0 0 0 0 0 0 0 0 0 0 0 0 0 0 0 0 0 0 0 0 0 0 0 0 0 0 0 0 0 0 0 0 0 0 0 17 12 116 116 80 166 194 125 32 77 77 12 1 0 0 0 0 0 0 4 0 0 18 265 50 1 0 0 11 27 104 207 103 107 167 319 423 441 477 108 299 130 72 53
0 0 0 0 0 0 0 0 0 0 0 0 0 0 0 0 0 0 118 0 0 0 0 0 0 0 0 0 0 0 0 0 0 0 0 0 0 0 0 0 0 0 0 0 0 20 28 114 114 32 152 152 15 47 116 41 8 0 0 0 0 4 0 1 0 0 0 5 26 0 6 8 10 55 1 52 66 8 112 181 430 313 350 456 434 242 240 166
0 0 0 0 0 0 0 0 0 0 0 0 0 0 0 0 0 0 0 0 0 0 0 0 0 0 0 0 0 0 0 0 0 0 0 0 0 0 0 0 0 0 0 0 0 0 21 18 24 84 22 60 50 61 34 37 0 0 0 0 0 0 0 4 10 6 44 9 0 12 84 86 46 15 0 0 0 3 160 127 26 418 486 598 442 357 433 354
0 0 0 0 0 0 0 0 0 0 0 0 0 0 0 0 0 18 0 0 0 0 0 0 0 0 0 0 0 0 0 0 0 0 0 0 0 0 0 0 0 0 0 0 0 0 4 7 21 68 75 4 5 14 18 18 0 0 0 0 0 0 8 102 18 106 73 34 2 0 8 154 0 64 0 0 5 90 13 0 66 103 312 984 686 338 204 428
0 0 0 0 0 0 0 0 0 0 0 0 0 0 0 0 0 0 0 0 0 0 0 0 0 0 0 0 0 0 0 0 0 0 0 0 0 0 0 0 0 0 0 0 0 0 0 2 51 2 85 5 6 17 19 1 0 0 0 0 0 1 0 0 43 3 0 0 0 1 35 11 12 121 0 51 84 14 0 18 302 214 52 243 152 248 168 209
0 0 0 0 0 0 0 0 0 0 0 0 0 0 0 0 0 0 0 0 2 10 0 0 0 0 0 0 0 0 0 0 0 0 0 0 0 0 0 0 0 0 0 0 0 0 0 0 0 50 7 34 1 0 4 0 4 0 0 0 0 0 0 0 0 0 0 0 0 0 8 2 0 0 0 16 10 9 6 62 74 197 203 137 202 274 167 116
0 0 0 0 0 0 0 0 0 0 0 0 0 0 0 0 0 0 0 0 0 0 0 0 0 0 0 0 0 0 0 0 0 0 0 0 0 0 0 0 0 0 0 0 0 0 0 1 0 9 70 36 18 0 1 0 0 0 0 0 0 0 0 4 2 0 0 0 47 0 0 24 10 797 0 4 0 0 0 0 8 14 239 325 277 372 84 32
0 0 0 0 0 0 0 0 0 0 0 0 0 0 0 0 0 0 0 0 0 0 0 0 0 0 0 0 0 0 0 0 0 0 0 0 0 0 0 0 0 0 0 0 0 0 0 0 0 0 48 22 20 0 0 0 0 0 0 0 0 9 0 0 0 5 0 2 24 30 0 4 22 20 0 1 0 1 1 223 56 50 63 31 170 382 490 320
0 0 0 0 0 0 0 0 0 0 0 0 0 0 0 0 0 0 1 0 0 0 0 0 0 0 0 0 2 0 0 0 0 0 0 0 0 0 0 0 0 0 0 0 0 0 0 0 0 0 0 60 18 2 15 0 0 0 0 0 0 0 0 0 0 0 0 0 0 1 0 3 0 0 0 0 0 0 2 0 0 0 8 0 404 102 335 776
0 0 0 0 0 0 0 0 0 0 0 0 0 0 0 0 0 0 0 0 0 0 0 0 0 0 0 0 0 2 0 0 0 0 0 0 0 0 0 0 0 0 0 0 0 0 0 0 0 0 0 2 67 0 11 4 0 0 0 0 0 0 0 0 1 0 0 0 0 25 0 0 4 3 1 5 3 0 0 86 252 143 10 239 547 1296 776 724
0 0 8 0 0 0 0 0 0 0 0 0 0 0 0 0 0 0 0 0 0 0 0 0 0 0 0 0 0 0 1 0 0 0 0 0 0 0 0 0 0 0 0 0 0 0 0 0 0 0 10 0 35 12 7 13 12 0 0 0 0 0 0 0 0 0 0 0 0 0 0 0 0 0 38 0 0 1 29 1 0 0 171 504 908 1293 852 980
0 0 0 0 0 0 0 0 0 0 0 0 0 0 0 0 0 0 0 0 0 0 0 0 0 0 0 0 0 0 0 0 0 0 0 0 0 0 0 0 0 0 0 0 0 0 0 0 0 0 0 0 0 26 10 0 0 0 0 0 0 0 0 0 0 1 0 0 0 0 0 0 21 0 0 0 0 0 12 7 117 84 179 220 546 768 2106 1924
0 0 0 0 0 0 0 0 0 0 0 0 0 0 0 0 0 0 0 0 0 0 0 0 0 0 0 0 0 0 0 1 0 0 0 0 0 0 0 0 0 0 0 0 0 0 0 0 0 0 0 0 0 0 12 0 0 0 0 0 0 0 0 0 0 1 0 4 0 4 0 9 0 38 2 0 0 1 0 42 259 152 648 566 1168 2635 2672 2444
0 0 0 0 0 4 0 0 0 0 0 0 0 0 0 0 0 0 0 0 0 0 0 0 0 0 0 0 0 3 2 0 0 1 0 0 0 0 0 0 0 0 0 0 0 0 0 0 0 0 0 0 0 0 0 0 0 0 0 0 0 0 0 0 0 1 4 2 0 0 2 1 0 0 0 2 0 0 104 94 124 140 184 1215 2174 4046 3734 3910
0 0 0 0 0 0 0 0 1 1 0 0 0 0 0 0 0 0 0 0 0 0 0 0 0 0 0 0 0 0 0 3 12 0 0 4 1 0 0 0 0 0 0 0 18 0 0 0 0 0 0 0 0 0 0 0 0 0 0 0 0 0 0 0 20 41 1 30 7 3 8 7 12 40 0 0 2 166 263 25 26 2 252 1020 1080 1726 3566 3288
0 5 1 0 0 0 0 0 0 0 0 2 0 0 0 0 0 0 0 0 0 0 0 0 0 0 0 0 0 0 0 0 0 12 0 0 0 2 1 0 0 0 0 2868 169 0 0 0 0 0 0 0 0 49 0 0 0 0 0 0 0 0 0 0 0 39 0 0 0 0 0 1 0 0 0 0 9 0 158 92 59 2 524 2238 3192 4474 4752 4640
0 0 1 0 0 0 0 0 0 0 0 2 0 3 0 0 0 0 0 0 0 0 35 13 0 0 0 0 2 0 0 0 26 6 4 0 0 1 4 0 0 0 2030 1090 0 0 0 0 0 0 0 0 0 0 2 2 0 0 0 0 0 0 0 0 0 0 152 0 0 0 566 0 15 0 0 2 2 6 332 1184 966 772 926 2096 3500 4001 4452 5246
2 0 2 32 15 0 0 0 0 0 0 0 0 2 0 0 0 2 0 0 0 0 0 15 16 6 67 7 0 0 3 14 26 22 10 5 1 0 0 0 3 1133 32 0 0 0 0 0 0 0 0 0 0 0 0 0 0 0 0 0 0 0 0 0 0 0 1 0 0 249 190 0 6 0 3 42 11 7 1314 2153 2181 1091 707 1381 2240 2705 3162 4479
0 0 0 0 0 9 14 0 0 0 0 0 0 0 0 0 0 0 40 4 0 0 0 7 17 8 29 74 133 104 80 155 67 62 18 0 0 0 0 8 0 0 0 0 0 0 0 0 0 0 0 0 0 0 0 0 0 0 0 0 0 0 0 0 0 0 0 0 1 2 562 0 0 0 2 4 234 531 569 640 1541 1513 1802 1932 1846 1989 2225 3080
0 0 0 0 0 0 22 79 145 17 5 0 0 1 0 3 0 0 0 17 23 0 52 4 6 55 8 0 80 100 138 127 78 318 328 201 109 0 0 0 3 0 0 0 0 0 0 0 0 0 0 0 0 0 0 0 0 0 0 0 0 0 0 0 0 0 0 0 0 0 0 97 0 151 28 55 6 360 525 351 920 1739 1444 1983 1734 1619 1791 2353
0 0 0 0 0 0 6 15 6 6 5 6 0 0 0 0 0 0 3 8 26 131 52 13 0 123 275 177 70 345 94 35 231 120 188 133 79 86 6 66 13 32 0 0 0 0 0 0 0 0 0 0 0 0 0 0 0 0 0 0 0 0 0 0 0 0 3 12 0 0 14 66 370 148 123 213 100 441 695 559 837 1145 1206 1259 1191 1429 1936 2253
0 0 0 0 0 0 0 1 1 0 1 8 0 0 0 0 0 0 42 13 112 79 105 47 49 200 156 124 49 196 164 99 103 51 56 185 161 46 149 16 52 4 1 0 0 0 0 0 0 0 0 0 0 0 0 0 0 0 0 0 0 0 0 0 0 0 0 0 0 14 60 775 549 280 140 38 2 8 333 568 419 1053 1539 1372 1666 1635 1320 2360
Wind_Speed
nan nan nan nan nan nan nan nan nan nan nan nan nan nan nan nan nan nan nan nan nan nan nan nan nan nan nan nan nan nan nan nan nan nan nan nan nan nan nan 29 29 21 12 12 12 17 15 12 8 7 8 6 5 6 5 5 7 7 8 9 10 5 8 14 15 16 14 16 12 17 15 19 17 12 15 11 11 16 15 17 12 9 9 9 13 12 nan nan
nan nan nan nan nan nan nan nan nan nan nan nan nan nan nan nan nan nan nan nan nan nan nan nan nan nan nan nan nan nan nan nan nan nan nan nan nan nan 34 35 29 20 13 11 14 15 14 13 13 10 6 4 5 5 4 8 10 5 4 6 8 10 7 8 15 15 16 18 13 11 8 15 21 19 18 17 12 10 15 15 15 14 18 17 14 13 nan nan
nan nan nan nan nan nan nan nan nan nan nan nan nan nan nan nan nan nan nan nan nan nan nan nan nan nan nan nan nan nan nan nan nan nan nan nan 31 35 35 34 29 19 13 11 12 11 12 14 11 13 7 7 6 9 11 10 11 8 4 4 7 2 3 6 10 13 16 15 14 14 12 11 21 24 26 16 16 16 13 14 13 15 13 13 13 13 13 nan
nan nan nan nan nan nan nan nan nan nan nan nan nan nan nan nan nan nan nan nan nan nan nan nan nan nan nan nan nan nan nan nan nan nan nan 38 36 36 36 33 28 17 13 9 11 10 8 8 8 12 9 12 12 22 14 14 13 8 3 5 6 2 3 5 4 10 12 13 16 17 9 11 16 13 19 14 12 13 14 11 11 10 11 13 12 14 12 nan
nan nan nan nan nan nan nan nan nan nan nan nan nan nan nan nan nan nan nan nan nan nan nan nan nan nan nan nan nan nan nan nan nan nan 34 37 37 37 35 32 28 18 14 10 7 8 12 10 12 9 9 13 17 16 16 17 15 7 13 14 7 7 2 4 7 9 14 16 13 18 18 15 11 9 12 8 12 13 11 13 15 13 11 12 14 13 12 13
nan nan nan nan nan nan nan nan nan nan nan nan nan nan nan nan nan nan nan nan nan nan nan nan nan nan nan nan nan nan nan nan nan 18 27 37 37 36 33 33 29 18 12 10 9 8 12 12 9 11 14 14 14 16 13 16 16 9 21 17 8 1 3 5 7 13 13 13 14 15 13 12 17 16 16 13 15 12 17 17 15 12 11 10 12 12 13 15
nan nan nan nan nan nan nan nan nan nan nan nan nan nan nan nan nan nan nan nan nan nan nan nan nan nan nan nan nan nan nan nan nan 20 26 34 35 36 30 31 26 14 11 12 9 9 10 8 11 11 15 13 13 17 20 nan 16 21 17 12 8 2 5 7 10 13 15 16 18 16 16 18 13 15 12 14 14 19 15 16 14 12 13 8 10 10 13 14
nan nan nan nan nan nan nan nan nan nan nan nan nan nan nan nan nan nan nan nan nan nan nan nan nan nan nan nan nan nan nan nan nan 27 25 30 31 31 29 26 21 11 8 10 7 9 3 5 11 12 14 10 12 11 19 24 29 20 12 9 7 3 6 8 12 15 18 20 19 18 16 12 11 13 9 15 17 15 16 15 12 12 10 9 6 9 8 12
nan nan nan nan nan nan nan nan nan nan nan nan nan nan nan nan nan nan nan nan nan nan nan nan nan nan nan nan nan nan nan nan nan nan 28 28 29 29 30 21 20 12 9 9 14 4 3 7 12 11 8 8 14 19 12 19 12 7 7 7 7 5 4 8 13 16 17 16 21 18 14 12 13 12 13 16 18 18 20 14 13 11 11 7 6 9 5 nan
nan nan nan nan nan nan nan nan nan nan nan nan nan nan nan nan nan nan nan nan nan nan nan nan nan nan nan nan nan nan nan nan nan nan nan 29 28 29 28 20 20 14 11 10 11 3 7 9 11 11 15 10 17 nan 23 16 15 16 12 8 9 6 1 8 14 17 14 13 18 17 10 8 9 10 12 14 17 17 17 16 7 10 10 7 7 6 5 7
nan nan nan nan nan nan nan nan nan nan nan nan nan nan nan nan nan nan nan nan nan nan nan nan nan nan nan nan nan nan nan nan nan nan nan 29 28 27 25 20 20 13 12 8 8 7 8 9 11 10 8 10 17 10 10 13 22 17 13 11 6 5 5 4 10 10 3 3 7 15 13 7 8 10 9 10 13 11 11 9 6 10 7 7 9 7 3 4
nan nan nan nan nan nan nan nan nan nan nan nan nan nan nan nan nan nan nan nan nan nan nan nan nan nan nan nan nan nan nan nan nan nan 21 26 24 nan 22 16 16 14 11 7 6 4 6 9 14 12 13 16 9 13 10 18 17 16 15 12 11 4 4 6 7 7 3 5 3 6 12 10 5 2 2 1 3 8 5 4 6 nan 7 6 9 6 4 6
nan nan nan nan nan nan nan nan nan nan nan nan nan nan nan nan nan nan nan nan nan nan nan nan nan nan nan nan nan nan nan nan nan nan 17 18 17 nan 15 12 12 12 10 10 4 5 5 9 12 17 18 15 11 14 19 22 17 18 15 9 4 5 5 10 8 10 6 7 8 13 8 8 5 5 6 5 2 1 1 1 2 5 7 5 6 6 4 7
nan nan nan nan nan nan nan nan nan nan nan nan nan nan nan nan nan nan nan nan nan nan nan nan nan nan nan nan nan nan nan nan nan nan nan 14 15 15 13 10 11 10 8 13 8 4 12 8 14 19 15 17 15 nan 15 16 20 12 14 13 12 11 9 16 14 9 8 14 18 21 11 4 6 5 7 7 6 5 4 1 4 4 6 6 4 5 3 6
nan nan nan nan nan nan nan nan nan nan nan nan nan nan nan nan nan nan nan nan nan nan nan nan nan nan nan nan nan nan nan nan nan nan nan nan 11 12 12 11 10 10 7 6 8 8 12 11 13 18 16 13 nan nan 11 6 3 16 13 17 19 17 12 22 18 23 17 17 22 14 8 3 6 4 5 7 5 7 4 4 6 5 3 5 3 5 3 6
nan nan nan nan nan nan nan nan nan nan nan nan nan nan nan nan nan nan nan nan nan nan nan nan nan nan nan nan nan nan nan nan nan nan nan nan nan 8 12 12 9 9 8 8 6 11 14 9 13 nan 16 14 16 nan 11 11 nan nan 18 17 nan 13 15 16 19 23 17 17 16 15 5 3 4 6 9 8 9 8 6 7 7 7 3 4 2 4 3 5
nan nan nan nan nan nan nan nan nan nan nan nan nan nan nan nan nan nan nan nan nan nan nan nan nan nan nan nan nan nan nan nan nan nan nan nan nan nan 10 11 9 8 7 9 10 10 11 10 9 14 nan nan nan nan 15 nan 18 19 nan nan nan 13 14 8 17 17 16 16 13 18 8 6 7 10 7 10 14 11 8 10 9 4 2 2 3 4 4 3
nan nan nan nan nan nan nan nan nan nan nan nan nan nan nan nan nan nan nan nan nan nan nan nan nan nan nan nan nan nan nan nan nan nan nan nan nan nan 6 6 4 6 4 5 8 13 8 9 9 11 12 nan nan nan nan nan nan nan nan nan nan nan 13 11 13 16 15 17 9 8 11 6 9 14 13 14 13 12 12 12 8 5 5 5 5 nan 5 nan
nan nan nan nan nan nan nan nan nan nan nan nan nan nan nan nan nan nan nan nan nan nan nan nan nan nan nan nan nan nan nan nan nan nan nan nan nan nan 3 2 2 3 2 4 5 4 7 10 8 9 nan 10 nan nan nan nan nan nan nan nan nan nan nan 10 11 14 14 12 6 7 10 8 11 12 17 13 21 13 14 10 7 8 8 8 10 nan nan nan
nan nan nan nan nan nan nan nan nan nan nan nan nan nan nan nan nan nan nan nan nan nan nan nan nan nan nan nan nan nan nan nan nan nan nan nan nan nan nan nan nan nan 3 2 3 4 9 7 7 9 nan nan nan nan nan nan nan nan nan nan nan nan nan 12 12 11 11 11 9 nan 22 7 10 9 11 17 18 15 12 13 11 10 11 12 12 12 10 nan
nan nan nan nan nan nan nan nan nan nan nan nan nan nan nan nan nan nan nan nan nan nan nan nan nan nan nan nan nan nan nan nan nan nan nan nan nan nan nan nan nan nan nan 4 3 15 10 10 9 8 nan nan nan nan nan nan nan nan nan nan nan nan nan nan 14 11 5 5 5 11 12 5 6 8 11 14 12 10 12 14 12 11 12 12 14 12 16 12
nan nan nan nan nan nan nan nan nan nan nan nan nan nan nan nan nan nan nan nan nan nan nan nan nan nan nan nan nan nan nan nan nan nan nan nan nan nan nan nan nan nan nan nan 4 7 8 13 11 11 9 nan nan nan nan nan nan nan nan nan nan nan nan 14 nan 9 5 5 nan 2 4 5 5 6 7 9 10 9 11 10 8 11 12 10 14 12 14 11
nan nan nan nan nan nan nan nan nan nan nan nan nan nan nan nan nan nan nan nan nan nan nan nan nan nan nan nan nan nan nan nan nan nan nan nan nan nan nan nan nan nan nan 2 5 9 nan 4 12 nan 11 nan 7 nan nan nan nan nan nan nan nan nan nan 10 nan 12 7 3 5 7 nan 4 2 3 5 6 5 7 8 7 7 8 9 9 12 9 9 10
nan nan nan nan nan nan nan nan nan nan nan nan nan nan nan nan nan nan nan nan nan nan nan nan nan nan nan nan nan nan nan nan nan nan nan nan nan nan nan nan nan nan nan nan 4 6 nan 6 9 nan 14 nan nan nan nan nan nan nan nan nan nan nan nan nan nan nan 9 6 5 9 4 nan 3 3 2 2 5 7 7 8 8 6 7 9 6 7 6 8
nan nan nan nan nan nan nan nan nan nan nan nan nan nan nan nan nan nan nan nan nan nan nan nan nan nan nan nan nan nan nan nan nan nan nan nan nan nan nan nan nan nan nan nan nan nan 10 nan nan nan nan nan nan nan nan nan nan nan nan nan nan nan nan nan nan nan nan nan nan nan nan 1 3 6 5 3 3 3 5 10 11 11 9 9 8 6 7 10
nan nan nan nan nan nan nan nan nan nan nan nan nan nan nan nan nan nan nan nan nan nan nan nan nan nan nan nan nan nan nan nan nan nan nan nan nan nan nan nan nan nan nan nan nan nan 15 11 17 nan 13 nan nan nan nan nan nan nan nan nan nan nan nan nan nan nan nan nan 5 nan nan nan nan 1 11 5 6 6 5 6 13 12 11 10 11 11 11 11
nan nan nan nan nan nan nan nan nan nan nan nan nan nan nan nan nan nan nan nan nan nan nan nan nan nan nan nan nan nan nan nan nan nan nan nan nan nan nan nan nan nan nan nan nan nan 23 19 18 16 14 15 nan nan nan nan nan nan nan nan nan nan nan nan nan nan nan nan nan nan nan 8 nan nan nan nan 7 9 7 5 5 10 13 15 15 15 11 11
nan nan nan nan nan nan nan nan nan nan nan nan nan nan nan nan nan nan nan nan nan nan nan nan nan nan nan nan nan nan nan nan nan nan nan nan nan nan nan nan nan nan nan nan nan nan 16 19 nan nan 12 nan nan nan nan nan nan nan nan nan nan nan nan nan nan nan nan nan nan nan nan nan nan nan 12 8 nan 10 11 11 8 10 8 9 13 14 15 12
nan nan nan nan nan nan nan nan nan nan nan nan nan nan nan nan nan nan 16 nan nan nan nan nan nan nan nan nan nan nan nan nan nan nan nan nan nan nan nan nan nan nan nan nan nan nan nan nan nan 7 nan nan nan nan nan nan nan nan nan nan nan nan nan nan nan nan nan nan 3 nan nan nan 10 10 7 7 7 12 14 14 13 12 11 7 8 12 13 14
nan nan nan nan nan nan nan nan nan nan nan nan nan nan nan nan nan nan nan nan nan nan nan nan nan nan nan nan nan nan nan nan nan nan nan nan nan nan nan nan nan nan nan nan nan nan 13 12 nan nan nan 16 nan nan nan nan nan nan nan nan nan nan nan nan nan nan nan nan nan nan nan 14 nan nan 7 4 nan 10 11 13 13 14 14 13 12 16 18 18
nan nan nan nan nan nan nan nan nan nan nan nan nan nan nan nan nan nan nan nan nan nan nan nan nan nan nan nan nan nan nan nan nan nan nan nan nan nan nan nan nan nan nan nan nan nan 15 13 nan 10 11 14 nan nan nan nan nan nan nan nan nan nan nan nan nan nan nan 9 nan nan nan nan nan nan 11 12 16 18 15 14 15 16 16 16 14 15 nan nan
nan nan nan nan nan nan nan nan nan nan nan nan nan nan nan nan nan nan 14 nan nan nan nan nan nan nan nan nan nan nan nan nan nan nan nan nan nan nan nan nan nan nan nan nan nan nan nan 13 13 nan 7 4 nan nan 14 nan nan nan nan nan nan nan nan nan nan nan nan nan nan nan nan nan nan nan nan nan nan nan 17 16 17 19 19 17 17 16 9 17
nan nan nan nan nan nan nan nan nan nan nan nan nan nan nan nan nan nan nan nan nan nan nan nan nan nan nan nan nan nan nan nan nan nan nan nan nan nan nan nan nan nan nan nan nan nan nan nan nan nan nan nan nan nan nan nan nan nan nan nan nan nan nan nan nan nan nan nan nan nan nan nan nan nan nan nan nan nan 19 18 nan 20 21 22 21 19 14 16
nan nan nan nan nan nan nan nan nan nan nan nan nan nan nan nan nan nan nan nan nan nan nan nan nan nan nan nan nan nan nan nan nan nan nan nan nan nan nan nan nan nan nan nan nan nan nan nan nan nan nan nan nan nan nan nan nan nan nan nan nan nan nan 7 nan 2 nan nan nan nan nan 7 nan nan nan nan nan nan nan nan nan 17 23 25 23 25 24 24
nan nan nan nan nan nan nan nan nan nan nan nan nan nan nan nan nan nan nan nan nan nan nan nan nan nan nan nan nan nan nan nan nan nan nan nan nan nan nan nan nan nan nan nan nan nan nan nan nan nan nan nan nan nan nan nan nan nan nan nan nan nan nan nan nan nan nan nan nan nan nan nan nan 22 nan nan nan nan nan nan 28 27 nan 30 22 26 23 27
nan nan nan nan nan nan nan nan nan nan nan nan nan nan nan nan nan nan nan nan nan nan nan nan nan nan nan nan nan nan nan nan nan nan nan nan nan nan nan nan nan nan nan nan nan nan nan nan nan nan nan nan nan nan nan nan nan nan nan nan nan nan nan nan nan nan nan nan nan nan nan nan nan nan nan nan nan nan nan nan nan 35 36 34 27 21 18 20
nan nan nan nan nan nan nan nan nan nan nan nan nan nan nan nan nan nan nan nan nan nan nan nan nan nan nan nan nan nan nan nan nan nan nan nan nan nan nan nan nan nan nan nan nan nan nan nan nan nan nan nan nan nan nan nan nan nan nan nan nan nan nan nan nan nan nan nan nan nan nan nan nan 3 nan nan nan nan nan nan nan nan 35 36 30 24 nan nan
nan nan nan nan nan nan nan nan nan nan nan nan nan nan nan nan nan nan nan nan nan nan nan nan nan nan nan nan nan nan nan nan nan nan nan nan nan nan nan nan nan nan nan nan nan nan nan nan nan nan nan nan nan nan nan nan nan nan nan nan nan nan nan nan nan nan nan nan nan nan nan nan nan nan nan nan nan nan nan 20 nan nan nan nan 29 33 31 28
nan nan nan nan nan nan nan nan nan nan nan nan nan nan nan nan nan nan nan nan nan nan nan nan nan nan nan nan nan nan nan nan nan nan nan nan nan nan nan nan nan nan nan nan nan nan nan nan nan nan nan nan nan nan nan nan nan nan nan nan nan nan nan nan nan nan nan nan nan nan nan nan nan nan nan nan nan nan nan nan nan nan nan nan 17 27 34 29
nan nan nan nan nan nan nan nan nan nan nan nan nan nan nan nan nan nan nan nan nan nan nan nan nan nan nan nan nan nan nan nan nan nan nan nan nan nan nan nan nan nan nan nan nan nan nan nan nan nan nan nan nan nan nan nan nan nan nan nan nan nan nan nan nan nan nan nan nan nan nan nan nan nan nan nan nan nan nan nan 26 18 nan 21 29 31 35 24
nan nan nan nan nan nan nan nan nan nan nan nan nan nan nan nan nan nan nan nan nan nan nan nan nan nan nan nan nan nan nan nan nan nan nan nan nan nan nan nan nan nan nan nan nan nan nan nan nan nan nan nan nan nan nan nan nan nan nan nan nan nan nan nan nan nan nan nan nan nan nan nan nan nan nan nan nan nan nan nan nan nan 25 29 30 32 30 28
nan nan nan nan nan nan nan nan nan nan nan nan nan nan nan nan nan nan nan nan nan nan nan nan nan nan nan nan nan nan nan nan nan nan nan nan nan nan nan nan nan nan nan nan nan nan nan nan nan nan nan nan nan nan nan nan nan nan nan nan nan nan nan nan nan nan nan nan nan nan nan nan nan nan nan nan nan nan nan nan 38 nan 24 29 31 26 25 32
nan nan nan nan nan nan nan nan nan nan nan nan nan nan nan nan nan nan nan nan nan nan nan nan nan nan nan nan nan nan nan nan nan nan nan nan nan nan nan nan nan nan nan nan nan nan nan nan nan nan nan nan nan nan nan nan nan nan nan nan nan nan nan nan nan nan nan nan nan nan nan nan nan nan nan nan nan nan nan nan 40 31 37 32 29 26 25 27
nan nan nan nan nan nan nan nan nan nan nan nan nan nan nan nan nan nan nan nan nan nan nan nan nan nan nan nan nan nan nan nan nan nan nan nan nan nan nan nan nan nan nan nan nan nan nan nan nan nan nan nan nan nan nan nan nan nan nan nan nan nan nan nan nan nan nan nan nan nan nan nan nan nan nan nan nan nan 35 nan 31 31 27 27 23 24 22 25
nan nan nan nan nan nan nan nan nan nan nan nan nan nan nan nan nan nan nan nan nan nan nan nan nan nan nan nan nan nan nan nan nan nan nan nan nan nan nan nan nan nan nan nan nan nan nan nan nan nan nan nan nan nan nan nan nan nan nan nan nan nan nan nan nan nan nan nan nan nan nan nan nan nan nan nan nan 10 26 nan nan nan 29 22 22 22 19 23
nan nan nan nan nan nan nan nan nan nan nan nan nan nan nan nan nan nan nan nan nan nan nan nan nan nan nan nan nan nan nan nan nan nan nan nan nan nan nan nan nan nan nan 22 23 nan nan nan nan nan nan nan nan nan nan nan nan nan nan nan nan nan nan nan nan nan nan nan nan nan nan nan nan nan nan nan nan nan 19 nan nan nan 30 21 20 19 20 25
nan nan nan nan nan nan nan nan nan nan nan nan nan nan nan nan nan nan nan nan nan nan nan nan nan nan nan nan nan nan nan nan nan nan nan nan nan nan nan nan nan nan 21 21 nan nan nan nan nan nan nan nan nan nan nan nan nan nan nan nan nan nan nan nan nan nan 21 nan nan nan 19 nan nan nan nan nan nan nan 27 35 25 29 26 20 20 20 20 28
nan nan nan nan nan nan nan nan nan nan nan nan nan nan nan nan nan nan nan nan nan nan nan nan nan nan nan nan nan nan nan nan nan nan nan nan nan nan nan nan nan 33 nan nan nan nan nan nan nan nan nan nan nan nan nan nan nan nan nan nan nan nan nan nan nan nan nan nan nan 20 23 nan nan nan nan nan nan nan 36 35 30 28 25 21 22 24 25 28
nan nan nan nan nan nan nan nan nan nan nan nan nan nan nan nan nan nan nan nan nan nan nan nan nan nan nan nan 10 14 nan 16 nan nan nan nan nan nan nan nan nan nan nan nan nan nan nan nan nan nan nan nan nan nan nan nan nan nan nan nan nan nan nan nan nan nan nan nan nan nan 30 nan nan nan nan nan 38 37 30 28 30 27 21 22 26 32 34 32
nan nan nan nan nan nan nan nan 12 nan nan nan nan nan nan nan nan nan nan nan nan nan nan nan nan nan nan nan nan 16 23 26 nan 28 36 32 24 nan nan nan nan nan nan nan nan nan nan nan nan nan nan nan nan nan nan nan nan nan nan nan nan nan nan nan nan nan nan nan nan nan nan nan nan 36 nan nan nan 39 36 31 32 32 35 47 44 36 29 21
nan nan nan nan nan nan nan nan nan nan nan nan nan nan nan nan nan nan nan nan nan 23 nan nan nan 30 34 25 nan 30 nan nan 36 29 33 29 nan nan nan nan nan nan nan nan nan nan nan nan nan nan nan nan nan nan nan nan nan nan nan nan nan nan nan nan nan nan nan nan nan nan nan nan 41 50 50 42 36 36 35 33 35 40 48 47 40 33 31 31
nan nan nan nan nan nan nan nan nan nan nan nan nan nan nan nan nan nan nan nan 22 nan 31 nan nan 37 33 26 nan 34 33 nan 36 nan nan 33 32 nan 32 nan nan nan nan nan nan nan nan nan nan nan nan nan nan nan nan nan nan nan nan nan nan nan nan nan nan nan nan nan nan nan nan 42 43 47 49 nan nan nan 37 36 39 45 39 41 35 32 34 37
Wind_Direction
nan nan nan nan nan nan nan nan nan nan nan nan nan nan nan nan nan nan nan nan nan nan nan nan nan nan nan nan nan nan nan nan nan nan nan nan nan nan nan 325 330 348 354 346 353 341 342 353 350 27 333 351 7 24 3 356 288 259 238 214 194 219 213 210 233 237 241 261 234 227 217 208 191 167 159 164 195 204 227 227 223 210 231 274 281 294 nan nan
nan nan nan nan nan nan nan nan nan nan nan nan nan nan nan nan nan nan nan nan nan nan nan nan nan nan nan nan nan nan nan nan nan nan nan nan nan nan 334 333 334 350 0 2 356 345 344 355 339 44 360 13 351 36 346 351 336 311 267 231 186 192 210 202 231 233 233 250 252 225 167 190 188 184 172 184 205 199 222 232 232 242 253 268 285 297 nan nan
nan nan nan nan nan nan nan nan nan nan nan nan nan nan nan nan nan nan nan nan nan nan nan nan nan nan nan nan nan nan nan nan nan nan nan nan 334 335 337 336 339 351 5 355 356 338 1 3 351 10 39 70 19 64 58 13 5 22 322 131 137 128 145 231 217 232 225 212 231 231 143 171 200 178 170 172 212 218 232 238 244 250 265 279 289 303 310 nan
nan nan nan nan nan nan nan nan nan nan nan nan nan nan nan nan nan nan nan nan nan nan nan nan nan nan nan nan nan nan nan nan nan nan nan 326 332 337 340 340 342 353 11 354 12 0 342 6 8 6 33 63 40 44 39 25 29 5 11 88 95 79 157 202 222 220 212 203 201 211 211 196 218 166 177 158 220 217 221 227 253 271 274 284 301 306 318 nan
nan nan nan nan nan nan nan nan nan nan nan nan nan nan nan nan nan nan nan nan nan nan nan nan nan nan nan nan nan nan nan nan nan nan 315 321 330 338 343 342 342 357 15 352 3 31 347 23 345 9 46 55 26 34 45 25 29 345 45 67 13 46 36 211 166 195 200 195 192 197 195 204 238 183 176 195 215 221 219 224 243 249 260 289 303 309 324 321
nan nan nan nan nan nan nan nan nan nan nan nan nan nan nan nan nan nan nan nan nan nan nan nan nan nan nan nan nan nan nan nan nan 305 319 320 328 339 343 344 352 3 15 9 2 14 40 14 341 23 43 49 32 45 63 31 3 7 42 33 25 72 230 169 177 180 177 196 189 196 187 182 218 206 190 214 226 213 226 230 237 240 256 270 298 316 324 323
nan nan nan nan nan nan nan nan nan nan nan nan nan nan nan nan nan nan nan nan nan nan nan nan nan nan nan nan nan nan nan nan nan 310 316 321 329 339 343 349 359 12 17 46 3 31 70 54 41 54 54 63 40 38 59 nan 2 27 26 12 2 18 209 193 194 189 188 193 194 193 194 203 205 212 183 214 217 196 225 237 243 254 259 276 294 323 322 322
nan nan nan nan nan nan nan nan nan nan nan nan nan nan nan nan nan nan nan nan nan nan nan nan nan nan nan nan nan nan nan nan nan 310 318 319 330 337 340 352 0 16 29 54 54 41 62 57 73 80 64 51 43 3 55 345 14 29 6 1 358 346 214 202 210 209 197 195 186 184 207 217 192 203 203 227 210 201 229 246 248 244 266 266 284 305 312 324
nan nan nan nan nan nan nan nan nan nan nan nan nan nan nan nan nan nan nan nan nan nan nan nan nan nan nan nan nan nan nan nan nan nan 312 319 330 334 346 353 5 20 33 48 59 99 89 86 79 44 98 93 71 10 1 2 353 23 11 349 337 316 259 207 228 220 216 196 191 194 210 207 204 210 215 224 218 204 201 214 265 272 267 256 273 298 296 nan
nan nan nan nan nan nan nan nan nan nan nan nan nan nan nan nan nan nan nan nan nan nan nan nan nan nan nan nan nan nan nan nan nan nan nan 320 326 335 354 360 2 23 38 50 61 36 56 43 70 65 54 94 75 nan 344 9 15 10 18 351 328 311 235 211 218 218 217 206 188 183 202 189 197 192 218 197 208 213 211 189 281 281 280 288 267 277 298 321
nan nan nan nan nan nan nan nan nan nan nan nan nan nan nan nan nan nan nan nan nan nan nan nan nan nan nan nan nan nan nan nan nan nan nan 316 325 340 357 5 6 17 44 47 73 26 59 88 83 106 122 63 83 26 12 4 358 12 356 348 341 325 313 260 236 232 189 164 200 165 155 169 179 193 211 196 212 223 214 180 188 291 312 303 296 305 317 297
nan nan nan nan nan nan nan nan nan nan nan nan nan nan nan nan nan nan nan nan nan nan nan nan nan nan nan nan nan nan nan nan nan nan 305 317 328 nan 360 11 3 20 38 63 74 81 79 86 90 98 89 106 85 211 43 349 4 12 6 6 352 333 13 329 321 341 20 101 177 122 106 120 145 126 247 143 200 214 208 181 139 nan 340 328 307 319 311 279
nan nan nan nan nan nan nan nan nan nan nan nan nan nan nan nan nan nan nan nan nan nan nan nan nan nan nan nan nan nan nan nan nan nan 303 313 321 nan 360 18 6 27 46 81 78 90 82 82 85 89 91 101 109 10 13 9 356 15 16 3 10 33 40 358 333 325 359 70 8 36 86 96 74 34 341 345 27 258 207 332 27 322 345 319 314 292 295 288
nan nan nan nan nan nan nan nan nan nan nan nan nan nan nan nan nan nan nan nan nan nan nan nan nan nan nan nan nan nan nan nan nan nan nan 314 326 339 5 22 16 19 59 106 105 117 119 105 85 88 88 94 102 nan 40 343 347 13 358 5 27 40 22 359 6 348 24 29 24 40 87 83 70 59 321 341 2 3 321 269 67 1 359 320 317 282 273 283
nan nan nan nan nan nan nan nan nan nan nan nan nan nan nan nan nan nan nan nan nan nan nan nan nan nan nan nan nan nan nan nan nan nan nan nan 328 336 2 9 24 28 67 99 124 103 94 88 89 95 93 92 nan nan 97 272 70 351 1 30 29 33 354 0 358 352 33 25 19 35 87 108 62 47 358 10 40 10 305 42 50 51 347 319 333 301 314 297
nan nan nan nan nan nan nan nan nan nan nan nan nan nan nan nan nan nan nan nan nan nan nan nan nan nan nan nan nan nan nan nan nan nan nan nan nan 353 339 347 20 46 68 96 118 127 134 159 116 nan 114 96 81 nan 63 0 nan nan 17 32 nan 22 359 356 7 9 28 23 30 54 82 51 71 52 25 31 38 38 0 36 40 65 329 333 345 305 344 322
nan nan nan nan nan nan nan nan nan nan nan nan nan nan nan nan nan nan nan nan nan nan nan nan nan nan nan nan nan nan nan nan nan nan nan nan nan nan 344 358 15 52 60 106 121 127 119 110 110 96 nan nan nan nan 52 nan 26 22 nan nan nan 3 5 4 359 12 8 28 42 55 64 43 7 27 68 61 43 36 25 32 42 37 50 23 24 1 36 329
nan nan nan nan nan nan nan nan nan nan nan nan nan nan nan nan nan nan nan nan nan nan nan nan nan nan nan nan nan nan nan nan nan nan nan nan nan nan 46 358 20 75 86 110 119 129 137 118 115 114 140 nan nan nan nan nan nan nan nan nan nan nan 7 334 10 17 4 39 38 31 73 352 2 354 29 57 57 74 43 44 49 43 53 67 52 nan 32 nan
nan nan nan nan nan nan nan nan nan nan nan nan nan nan nan nan nan nan nan nan nan nan nan nan nan nan nan nan nan nan nan nan nan nan nan nan nan nan 73 82 66 21 124 138 161 115 152 143 138 140 nan 128 nan nan nan nan nan nan nan nan nan nan nan 12 357 6 10 17 45 116 58 15 358 6 350 3 51 34 59 52 44 57 56 66 69 nan nan nan
nan nan nan nan nan nan nan nan nan nan nan nan nan nan nan nan nan nan nan nan nan nan nan nan nan nan nan nan nan nan nan nan nan nan nan nan nan nan nan nan nan nan 104 112 151 134 165 154 147 142 nan nan nan nan nan nan nan nan nan nan nan nan nan 311 329 14 23 26 333 nan 81 14 6 4 355 358 33 30 29 47 55 50 58 70 76 76 74 nan
nan nan nan nan nan nan nan nan nan nan nan nan nan nan nan nan nan nan nan nan nan nan nan nan nan nan nan nan nan nan nan nan nan nan nan nan nan nan nan nan nan nan nan 95 158 209 172 161 147 117 nan nan nan nan nan nan nan nan nan nan nan nan nan nan 325 4 302 63 345 30 57 15 25 14 353 7 12 34 46 44 40 45 55 65 61 61 76 77
nan nan nan nan nan nan nan nan nan nan nan nan nan nan nan nan nan nan nan nan nan nan nan nan nan nan nan nan nan nan nan nan nan nan nan nan nan nan nan nan nan nan nan nan 216 259 208 174 152 131 160 nan nan nan nan nan nan nan nan nan nan nan nan 309 nan 338 322 31 nan 85 39 103 16 12 2 16 18 22 31 61 54 44 55 69 65 51 64 65
nan nan nan nan nan nan nan nan nan nan nan nan nan nan nan nan nan nan nan nan nan nan nan nan nan nan nan nan nan nan nan nan nan nan nan nan nan nan nan nan nan nan nan 235 235 253 nan 184 139 nan 151 nan 117 nan nan nan nan nan nan nan nan nan nan 310 nan 302 318 18 329 348 nan 11 11 344 17 19 345 18 10 15 26 41 60 53 63 63 66 61
nan nan nan nan nan nan nan nan nan nan nan nan nan nan nan nan nan nan nan nan nan nan nan nan nan nan nan nan nan nan nan nan nan nan nan nan nan nan nan nan nan nan nan nan 250 231 nan 189 184 nan 160 nan nan nan nan nan nan nan nan nan nan nan nan nan nan nan 320 5 332 252 135 nan 313 316 7 26 330 23 338 356 354 4 41 48 24 73 54 68
nan nan nan nan nan nan nan nan nan nan nan nan nan nan nan nan nan nan nan nan nan nan nan nan nan nan nan nan nan nan nan nan nan nan nan nan nan nan nan nan nan nan nan nan nan nan 218 nan nan nan nan nan nan nan nan nan nan nan nan nan nan nan nan nan nan nan nan nan nan nan nan 175 325 313 323 325 335 1 343 343 344 340 354 29 348 26 39 30
nan nan nan nan nan nan nan nan nan nan nan nan nan nan nan nan nan nan nan nan nan nan nan nan nan nan nan nan nan nan nan nan nan nan nan nan nan nan nan nan nan nan nan nan nan nan 247 210 171 nan 169 nan nan nan nan nan nan nan nan nan nan nan nan nan nan nan nan nan 136 nan nan nan nan 36 305 335 326 319 11 354 337 340 340 350 349 350 18 16
nan nan nan nan nan nan nan nan nan nan nan nan nan nan nan nan nan nan nan nan nan nan nan nan nan nan nan nan nan nan nan nan nan nan nan nan nan nan nan nan nan nan nan nan nan nan 249 230 184 152 169 177 nan nan nan nan nan nan nan nan nan nan nan nan nan nan nan nan nan nan nan 311 nan nan nan nan 326 322 339 349 350 331 348 334 350 343 348 356
nan nan nan nan nan nan nan nan nan nan nan nan nan nan nan nan nan nan nan nan nan nan nan nan nan nan nan nan nan nan nan nan nan nan nan nan nan nan nan nan nan nan nan nan nan nan 255 265 nan nan 179 nan nan nan nan nan nan nan nan nan nan nan nan nan nan nan nan nan nan nan nan nan nan nan 306 329 nan 339 344 341 351 317 341 343 343 329 329 339
nan nan nan nan nan nan nan nan nan nan nan nan nan nan nan nan nan nan 206 nan nan nan nan nan nan nan nan nan nan nan nan nan nan nan nan nan nan nan nan nan nan nan nan nan nan nan nan nan nan 161 nan nan nan nan nan nan nan nan nan nan nan nan nan nan nan nan nan nan 278 nan nan nan 289 332 334 3 6 344 334 338 337 326 331 348 329 323 332 332
nan nan nan nan nan nan nan nan nan nan nan nan nan nan nan nan nan nan nan nan nan nan nan nan nan nan nan nan nan nan nan nan nan nan nan nan nan nan nan nan nan nan nan nan nan nan 267 264 nan nan nan 200 nan nan nan nan nan nan nan nan nan nan nan nan nan nan nan nan nan nan nan 280 nan nan 332 343 nan 340 320 315 318 322 324 325 324 332 338 336
nan nan nan nan nan nan nan nan nan nan nan nan nan nan nan nan nan nan nan nan nan nan nan nan nan nan nan nan nan nan nan nan nan nan nan nan nan nan nan nan nan nan nan nan nan nan 271 278 nan 235 232 204 nan nan nan nan nan nan nan nan nan nan nan nan nan nan nan 292 nan nan nan nan nan nan 334 355 346 347 332 326 323 325 320 317 320 335 nan nan
nan nan nan nan nan nan nan nan nan nan nan nan nan nan nan nan nan nan 199 nan nan nan nan nan nan nan nan nan nan nan nan nan nan nan nan nan nan nan nan nan nan nan nan nan nan nan nan 292 275 nan 271 217 nan nan 176 nan nan nan nan nan nan nan nan nan nan nan nan nan nan nan nan nan nan nan nan nan nan nan 332 334 335 326 322 317 317 325 318 325
nan nan nan nan nan nan nan nan nan nan nan nan nan nan nan nan nan nan nan nan nan nan nan nan nan nan nan nan nan nan nan nan nan nan nan nan nan nan nan nan nan nan nan nan nan nan nan nan nan nan nan nan nan nan nan nan nan nan nan nan nan nan nan nan nan nan nan nan nan nan nan nan nan nan nan nan nan nan 319 318 nan 319 323 320 321 311 317 324
nan nan nan nan nan nan nan nan nan nan nan nan nan nan nan nan nan nan nan nan nan nan nan nan nan nan nan nan nan nan nan nan nan nan nan nan nan nan nan nan nan nan nan nan nan nan nan nan nan nan nan nan nan nan nan nan nan nan nan nan nan nan nan 244 nan 188 nan nan nan nan nan 255 nan nan nan nan nan nan nan nan nan 283 288 310 318 317 319 327
nan nan nan nan nan nan nan nan nan nan nan nan nan nan nan nan nan nan nan nan nan nan nan nan nan nan nan nan nan nan nan nan nan nan nan nan nan nan nan nan nan nan nan nan nan nan nan nan nan nan nan nan nan nan nan nan nan nan nan nan nan nan nan nan nan nan nan nan nan nan nan nan nan 311 nan nan nan nan nan nan 311 307 nan 301 302 304 321 330
nan nan nan nan nan nan nan nan nan nan nan nan nan nan nan nan nan nan nan nan nan nan nan nan nan nan nan nan nan nan nan nan nan nan nan nan nan nan nan nan nan nan nan nan nan nan nan nan nan nan nan nan nan nan nan nan nan nan nan nan nan nan nan nan nan nan nan nan nan nan nan nan nan nan nan nan nan nan nan nan nan 292 304 312 316 309 319 327
nan nan nan nan nan nan nan nan nan nan nan nan nan nan nan nan nan nan nan nan nan nan nan nan nan nan nan nan nan nan nan nan nan nan nan nan nan nan nan nan nan nan nan nan nan nan nan nan nan nan nan nan nan nan nan nan nan nan nan nan nan nan nan nan nan nan nan nan nan nan nan nan nan 207 nan nan nan nan nan nan nan nan 307 320 320 325 nan nan
nan nan nan nan nan nan nan nan nan nan nan nan nan nan nan nan nan nan nan nan nan nan nan nan nan nan nan nan nan nan nan nan nan nan nan nan nan nan nan nan nan nan nan nan nan nan nan nan nan nan nan nan nan nan nan nan nan nan nan nan nan nan nan nan nan nan nan nan nan nan nan nan nan nan nan nan nan nan nan 273 nan nan nan nan 318 314 302 307
nan nan nan nan nan nan nan nan nan nan nan nan nan nan nan nan nan nan nan nan nan nan nan nan nan nan nan nan nan nan nan nan nan nan nan nan nan nan nan nan nan nan nan nan nan nan nan nan nan nan nan nan nan nan nan nan nan nan nan nan nan nan nan nan nan nan nan nan nan nan nan nan nan nan nan nan nan nan nan nan nan nan nan nan 275 299 307 303
nan nan nan nan nan nan nan nan nan nan nan nan nan nan nan nan nan nan nan nan nan nan nan nan nan nan nan nan nan nan nan nan nan nan nan nan nan nan nan nan nan nan nan nan nan nan nan nan nan nan nan nan nan nan nan nan nan nan nan nan nan nan nan nan nan nan nan nan nan nan nan nan nan nan nan nan nan nan nan nan 252 244 nan 275 276 265 282 288
nan nan nan nan nan nan nan nan nan nan nan nan nan nan nan nan nan nan nan nan nan nan nan nan nan nan nan nan nan nan nan nan nan nan nan nan nan nan nan nan nan nan nan nan nan nan nan nan nan nan nan nan nan nan nan nan nan nan nan nan nan nan nan nan nan nan nan nan nan nan nan nan nan nan nan nan nan nan nan nan nan nan 271 273 275 288 297 296
nan nan nan nan nan nan nan nan nan nan nan nan nan nan nan nan nan nan nan nan nan nan nan nan nan nan nan nan nan nan nan nan nan nan nan nan nan nan nan nan nan nan nan nan nan nan nan nan nan nan nan nan nan nan nan nan nan nan nan nan nan nan nan nan nan nan nan nan nan nan nan nan nan nan nan nan nan nan nan nan 270 nan 276 284 298 299 299 299
nan nan nan nan nan nan nan nan nan nan nan nan nan nan nan nan nan nan nan nan nan nan nan nan nan nan nan nan nan nan nan nan nan nan nan nan nan nan nan nan nan nan nan nan nan nan nan nan nan nan nan nan nan nan nan nan nan nan nan nan nan nan nan nan nan nan nan nan nan nan nan nan nan nan nan nan nan nan nan nan 278 282 281 280 291 300 297 298
nan nan nan nan nan nan nan nan nan nan nan nan nan nan nan nan nan nan nan nan nan nan nan nan nan nan nan nan nan nan nan nan nan nan nan nan nan nan nan nan nan nan nan nan nan nan nan nan nan nan nan nan nan nan nan nan nan nan nan nan nan nan nan nan nan nan nan nan nan nan nan nan nan nan nan nan nan nan 270 nan 273 275 275 276 289 289 291 297
nan nan nan nan nan nan nan nan nan nan nan nan nan nan nan nan nan nan nan nan nan nan nan nan nan nan nan nan nan nan nan nan nan nan nan nan nan nan nan nan nan nan nan nan nan nan nan nan nan nan nan nan nan nan nan nan nan nan nan nan nan nan nan nan nan nan nan nan nan nan nan nan nan nan nan nan nan 270 274 nan nan nan 287 288 286 293 301 304
nan nan nan nan nan nan nan nan nan nan nan nan nan nan nan nan nan nan nan nan nan nan nan nan nan nan nan nan nan nan nan nan nan nan nan nan nan nan nan nan nan nan nan 213 208 nan nan nan nan nan nan nan nan nan nan nan nan nan nan nan nan nan nan nan nan nan nan nan nan nan nan nan nan nan nan nan nan nan 276 nan nan nan 297 293 286 286 294 296
nan nan nan nan nan nan nan nan nan nan nan nan nan nan nan nan nan nan nan nan nan nan nan nan nan nan nan nan nan nan nan nan nan nan nan nan nan nan nan nan nan nan 219 233 nan nan nan nan nan nan nan nan nan nan nan nan nan nan nan nan nan nan nan nan nan nan 238 nan nan nan 259 nan nan nan nan nan nan nan 240 237 232 270 285 289 288 285 285 285
nan nan nan nan nan nan nan nan nan nan nan nan nan nan nan nan nan nan nan nan nan nan nan nan nan nan nan nan nan nan nan nan nan nan nan nan nan nan nan nan nan 270 nan nan nan nan nan nan nan nan nan nan nan nan nan nan nan nan nan nan nan nan nan nan nan nan nan nan nan 271 265 nan nan nan nan nan nan nan 253 241 234 251 266 271 280 282 281 280
nan nan nan nan nan nan nan nan nan nan nan nan nan nan nan nan nan nan nan nan nan nan nan nan nan nan nan nan 204 199 nan 199 nan nan nan nan nan nan nan nan nan nan nan nan nan nan nan nan nan nan nan nan nan nan nan nan nan nan nan nan nan nan nan nan nan nan nan nan nan nan 276 nan nan nan nan nan 246 255 261 270 276 269 263 262 259 248 242 243
nan nan nan nan nan nan nan nan 192 nan nan nan nan nan nan nan nan nan nan nan nan nan nan nan nan nan nan nan nan 208 206 202 nan 201 200 183 176 nan nan nan nan nan nan nan nan nan nan nan nan nan nan nan nan nan nan nan nan nan nan nan nan nan nan nan nan nan nan nan nan nan nan nan nan 268 nan nan nan 255 264 274 279 282 279 261 255 261 278 295
nan nan nan nan nan nan nan nan nan nan nan nan nan nan nan nan nan nan nan nan nan 198 nan nan nan 206 199 179 nan 216 nan nan 204 202 202 190 nan nan nan nan nan nan nan nan nan nan nan nan nan nan nan nan nan nan nan nan nan nan nan nan nan nan nan nan nan nan nan nan nan nan nan nan 260 265 268 271 272 272 266 260 263 263 267 276 290 312 315 312
nan nan nan nan nan nan nan nan nan nan nan nan nan nan nan nan nan nan nan nan 197 nan 202 nan nan 205 205 196 nan 227 220 nan 202 nan nan 197 194 nan 184 nan nan nan nan nan nan nan nan nan nan nan nan nan nan nan nan nan nan nan nan nan nan nan nan nan nan nan nan nan nan nan nan 251 255 260 264 nan nan nan 268 251 259 261 271 289 300 300 301 296